Location: Doschendorf
(50.0069°N, 11.0602°E)
Time: 14:27:17
(UTC+00:00)

NOSS 7 (D) - Pass Details

Date: 17 November 2019
Orbit: 327 x 789 km, 63.3° (Epoch: 10 December)

Event Time Altitude Azimuth Distance (km) Brightness Sun altitude
Rises 16:04:41 0° 228° (SW) 2,226 9.5 -5.9°
Reaches altitude 10° 16:06:46 10° 231° (SW) 1,330 8.3 -6.2°
Maximum altitude 16:09:38 66° 314° (NW) 375 4.1 -6.6°
Drops below altitude 10° 16:12:22 10° 38° (NE) 1,265 6.2 -7.0°
Enters shadow 16:12:48 - 40° (NE) 1,451 6.4 -7.1°
